Regional Weather Roundup
Issued by NWS Green Bay, WI

Home | Current Version | Previous Version | Graphics & Text | Print | Product List | Glossary On
Versions: 1 2 3 4 5 6 7 8 9 10 11 12 13 14 15 16 17 18 19 20 21 22 23 24 25 26 27 28 29 30 31 32 33 34 35 36 37 38 39 40 41 42 43 44 45 46 47 48 49 50
000
ASUS43 KGRB 260610
RWRGRB

NORTH-CENTRAL AND NORTHEAST WISCONSIN REGIONAL WEATHER ROUNDUP
NATIONAL WEATHER SERVICE GREEN BAY WI
100 AM CDT SAT JUL 26 2014

WIZ005-009-010>012-018-019-260700-
NORTH CENTRAL WISCONSIN

CITY           SKY/WX    TMP DP  RH WIND       PRES   REMARKS
IRONWOOD       NOT AVBL
MANITOWISH WTR CLOUDY    65  64  96 SW5       29.84R
ARBOR VITAE    CLOUDY    65  62  91 SW6       29.85R
EAGLE RIVER    CLOUDY    64  63  95 SW6       29.84F
LAND O LAKES   CLOUDY    65  63  91 SW5       29.84F
RHINELANDER    CLOUDY    64  61  90 SW12      29.86F
PHILLIPS       CLOUDY    64  64  97 S5        29.84F
ANTIGO         CLOUDY    63  61  94 SW6       29.87F
TOMAHAWK       HVY RAIN  64  61  91 CALM      29.87S
MERRILL        CLOUDY    65  63  92 SW6       29.86F
$$

WIZ013-073-260700-
NORTHEAST WISCONSIN

CITY           SKY/WX    TMP DP  RH WIND       PRES   REMARKS
IRON MOUNTAIN  CLOUDY    66  61  84 SW5       29.83S
MARINETTE      CLEAR     64  59  82 SW3       29.84R
OCONTO         MOCLDY    64  62  93 SW3       29.84F
$$

WIZ017-030-035>037-045-260700-
CENTRAL WISCONSIN

CITY           SKY/WX    TMP DP  RH WIND       PRES   REMARKS
MEDFORD        CLOUDY    64  62  93 S8        29.87F
WAUSAU         CLOUDY    66  62  87 SW8       29.86S
MOSINEE        CLOUDY    63  63 100 S9        29.88F
MARSHFIELD     CLOUDY    65  62  90 SW9       29.87R
WISC RAPIDS    PTCLDY    65  62  90 S8        29.88F
STEVENS POINT  PTCLDY    62  60  93 S7        29.88F
WAUPACA        CLOUDY    67  63  85 S6        29.88S
SHAWANO        CLOUDY    68  62  80 SW3       29.86S
CLINTONVILLE   CLOUDY    64  61  88 SW7       29.86S
$$

WIZ038-039-048-051-260700-
FOX VALLEY

CITY           SKY/WX    TMP DP  RH WIND       PRES   REMARKS
NWS GREEN BAY  PTCLDY    66  61  84 SW3       29.86S
APPLETON       MOCLDY    64  61  88 SW10      29.88S
OSHKOSH        PTCLDY    65  62  90 SW6       29.88S
FOND DU LAC    PTCLDY    65  60  84 SW7       29.89S
$$

WIZ022-050-052-260700-
EAST CENTRAL WISCONSIN

CITY           SKY/WX    TMP DP  RH WIND       PRES   REMARKS
STURGEON BAY   MOCLDY    63  57  82 S7        29.86S
MANITOWOC      PTCLDY    67  61  81 SW8       29.86F
SHEBOYGAN      PTCLDY    62  60  93 SW7       29.89S
$$

LMZ563-521-522-541>543-260700-
LAKESHORE

STATION/POSITION TIME  TEMP    WIND        PRES    VSBY  WAVE
                       AIR SEA DIR/SP/G                  HT/PER
                 (UTC) (F)     (DEG/KT/KT) (MB)    (MI)  (FT/S)
SHEBOYGAN LKSHOR 0600   67     220/  8/  9 1011.9F
KEWAUNEE LKSHORE 0600   54                 1012.0F
NORTHPORT PIER   0600   62     200/  2/  6 1010.5S
N MID LAKE BUOY  0600   60 55  220/ 12/ 14 1009.8F         2/ 5
CHAMBERS ISLAND  0600   66     200/  1/  6 1010.8S
MENOMINEE LKSHOR 0600   67                 1011.2S
$$


USA.gov is the U.S. government's official web portal to all federal, state and local government web resources and services.